Miscellaneous Local Product
Issued by NWS Hastings, NE

Home | Current Version | Previous Version | Graphics & Text | Print | Product List | Glossary On
Versions: 1 2 3 4 5 6 7 8 9 10 11 12 13 14 15 16 17 18 19 20 21 22 23 24 25 26 27 28 29 30 31 32 33 34 35 36 37 38 39 40 41 42 43 44 45 46 47 48 49 50
711
AXUS43 KGID 150302
MISGRI

GID CWA HOURLY WEATHER ROUNDUP
NATIONAL WEATHER SERVICE HASTINGS NE
900 PM CST THU DEC 14 2017

NOTE: "FAIR" INDICATES FEW OR NO CLOUDS BELOW 12,000 FEET WITH NO
SIGNIFICANT WEATHER AND/OR OBSTRUCTIONS TO VISIBILITY.

...SOUTH CENTRAL NEBRASKA...

CITY           SKY/WX    TMP DP  RH WIND       PRES   REMARKS
GRAND ISLAND   MOCLDY    33  31  92 NW12      30.19R WCI  24
KEARNEY        CLOUDY    34  29  82 N9        30.20R WCI  27
HASTINGS       CLOUDY    34  30  85 N12       30.19R WCI  25
ORD            PTCLDY    32  26  78 NW12      30.17S WCI  23
YORK           CLOUDY    36  36 100 NW12      30.16R WCI  27
AURORA         CLOUDY    34  32  93 N12       30.17S WCI  25
LEXINGTON      PTCLDY    30  26  84 NW8       30.21S WCI  22
HOLDREGE       CLOUDY    33  28  81 NW7       30.20S WCI  26
HEBRON         CLOUDY    37  33  84 NW8       30.18R WCI  31

...NEBRASKA PANHANDLE...

CITY           SKY/WX    TMP DP  RH WIND       PRES   REMARKS
CHADRON        CLEAR     19  14  81 SW10      30.20F WCI   7
ALLIANCE       CLEAR      9   8  96 W10       30.19S WCI  -5
SCOTTSBLUFF    CLEAR     19  15  84 NW6       30.21F WCI  11
SIDNEY         CLEAR     18  12  77 W8        30.22R WCI   8

...WESTERN AND NORTH CENTRAL NEBRASKA...

CITY           SKY/WX    TMP DP  RH WIND       PRES   REMARKS
VALENTINE      CLOUDY    31  28  89 W7        30.17F WCI  24
AINSWORTH      CLOUDY    30  27  88 W7        30.17S WCI  23
ONEILL         CLOUDY    31  28  89 NW10      30.16F WCI  22
BROKEN BOW     CLOUDY    33  27  78 N14       30.19R WCI  23
IMPERIAL       CLOUDY    32  23  69 N10       30.23S WCI  24
NORTH PLATTE   CLOUDY    33  25  72 NW8       30.21S WCI  26
MCCOOK         CLOUDY    33  24  69 NW10      30.23R WCI  25

...EASTERN NEBRASKA...

CITY           SKY/WX    TMP DP  RH WIND       PRES   REMARKS
NORFOLK        CLOUDY    32  30  92 NW10      30.13S WCI  24
SO SIOUX CITY  MIX PCPN  35  28  75 NW13      30.12S WCI  26
TEKAMAH        CLOUDY    36  26  67 NW13      30.12S WCI  27
COLUMBUS       CLOUDY    34  30  85 N16       30.16S WCI  24
ALBION         CLOUDY    33  30  88 NW7       30.16S WCI  27
OMAHA EPPLEY   CLOUDY    38  25  59 W10       30.12S WCI  31
OFFUTT AFB     CLOUDY    38  26  61 NW10      30.11S WCI  31
MILLARD        CLOUDY    39  31  71 NW12      30.13S WCI  32
LINCOLN        CLOUDY    37  31  78 N12       30.16R WCI  29
NEBRASKA CITY  CLOUDY    34  33  93 NW10      30.13R WCI  26
BEATRICE       CLOUDY    36  34  93 NW12      30.15R WCI  28
FALLS CITY     MOCLDY    34  27  75 NW7       30.13R WCI  28

...NORTHERN KANSAS...

CITY           SKY/WX    TMP DP  RH WIND       PRES   REMARKS
GOODLAND       CLOUDY    30  21  69 NW10      30.23R WCI  21
HILL CITY      CLOUDY    35  28  75 NW5       30.23R WCI  31
NORTON         CLOUDY    34  21  60 NW9       30.21S WCI  26
PHILLIPSBURG   CLOUDY    37  28  70 CALM      30.23S
SMITH CENTER   CLOUDY    34  30  86 NW13      30.21R WCI  25
HAYS           CLOUDY    32  25  75 N8        30.22  WCI  25
RUSSELL        CLEAR     28  26  92 NW9       30.20R WCI  19
CONCORDIA      CLOUDY    37  33  85 N10       30.17S WCI  30
SALINA         CLOUDY    41  35  79 NW15      30.18R
TOPEKA         CLOUDY    41  33  73 NW8       30.14R



USA.gov is the U.S. government's official web portal to all federal, state and local government web resources and services.